Overview Statistics Trail Chart Weather Telemetry Raw packets
 

This is the latest recevied weather packets stored in our database for station/object WE1C. If no packets are shown the sender has not sent any weather packets the latest 10 day(s).

<< 15 16 17 18 19 20 21 >>
Time Temp. Humidity Pressure Rain* Wind** Luminosity Snow
1788506180 18.33° C 99% 1039.3 hPa 0 mm - 0 W/m² -
1788505875 17.78° C 99% 1039.4 hPa 0 mm - 0 W/m² -
1788505575 17.78° C 99% 1039.3 hPa 0 mm - 0 W/m² -
1788505275 18.33° C 99% 1039.4 hPa 0 mm - 0 W/m² -
1788504970 17.78° C 99% 1039.4 hPa 0 mm - 0 W/m² -
1788504667 18.33° C 99% 1039.2 hPa 0 mm - 0 W/m² -
1788504362 18.33° C 99% 1039.5 hPa 0 mm - 0 W/m² -
1788504062 18.33° C 99% 1039.5 hPa 0 mm - 0 W/m² -
1788503758 18.33° C 99% 1039.2 hPa 0 mm - 0 W/m² -
1788503453 18.33° C 99% 1039.3 hPa 0 mm - 0 W/m² -
1788503150 18.89° C 99% 1039.4 hPa 0 mm - 0 W/m² -
1788502850 18.89° C 99% 1039.3 hPa 0 mm - 0 W/m² -
1788502546 18.89° C 99% 1039.5 hPa 0 mm - 0 W/m² -
1788502242 18.89° C 99% 1039.6 hPa 0 mm - 0 W/m² -
1788501938 18.89° C 99% 1039.5 hPa 0 mm - 0 W/m² -
1788501634 18.89° C 99% 1039.8 hPa 0 mm - 0 W/m² -
1788501329 18.89° C 99% 1039.7 hPa 0 mm - 0 W/m² -
1788501024 18.89° C 99% 1039.8 hPa 0 mm - 0 W/m² -
1788500720 18.89° C 99% 1039.7 hPa 0 mm - 0 W/m² -
1788500416 18.89° C 99% 1039.9 hPa 0 mm - 0 W/m² -
1788500115 18.89° C 99% 1040 hPa 0 mm - 0 W/m² -
1788499810 19.44° C 99% 1040.1 hPa 0 mm - 0 W/m² -
1788499507 19.44° C 99% 1040.3 hPa 0 mm - 0 W/m² -
1788499202 19.44° C 99% 1040.3 hPa 0 mm - 0 W/m² -
1788498899 18.89° C 99% 1040.3 hPa 0 mm - 0 W/m² -

* Rain latest hour (hover to see other rain measurements)
** Current wind speed in m/s (hover to see current wind gust speed)